Location: Cahas Mountain Overlook
(37.0833°N, 80.1000°W)
Time: 15:24:56
(UTC-05:00)

Courier 1B - Visible Passes

Search period start: 25 January 2022 00:00
Search period end: 04 February 2022 00:00
Orbit: 962 x 1209 km, 28.3° (Epoch: 25 January)

Date Brightness Start Highest point End Pass type
(mag) Time Alt. Az. Time Alt. Az. Time Alt. Az.
25 Jan 9.1 18:51:02 10° SW 18:57:28 29° SSE 19:02:12 16° ESE visible
25 Jan 8.9 20:43:52 10° WSW 20:49:05 36° SSW 20:49:05 36° SSW visible
26 Jan 9.4 17:57:53 10° SSW 18:03:43 24° SSE 18:09:41 10° ESE visible
26 Jan 8.5 19:50:09 10° WSW 19:57:19 41° S 19:58:42 38° SSE visible
26 Jan 10.0 21:43:51 10° WSW 21:45:36 17° WSW 21:45:36 17° WSW visible
27 Jan 8.8 18:56:34 10° SW 19:03:29 37° SSE 19:08:19 19° ESE visible
27 Jan 8.9 20:49:58 10° WSW 20:55:13 37° SW 20:55:13 37° SW visible
28 Jan 9.1 18:03:09 10° SW 18:09:42 32° SSE 18:16:26 10° ESE visible
28 Jan 8.4 19:56:10 10° WSW 20:03:26 44° S 20:04:49 41° SSE visible
28 Jan 10.1 21:50:11 10° WSW 21:51:43 16° WSW 21:51:43 16° WSW visible
29 Jan 8.6 19:02:28 10° WSW 19:09:35 43° S 19:14:26 21° ESE visible
29 Jan 9.0 20:56:14 10° WSW 21:01:20 35° SW 21:01:20 35° SW visible
30 Jan 8.8 18:08:53 10° SW 18:15:44 39° S 18:22:52 10° ESE visible
30 Jan 8.5 20:02:22 10° WSW 20:09:34 43° S 20:10:58 40° SSE visible
30 Jan 10.2 21:56:44 10° WSW 21:57:52 14° WSW 21:57:52 14° WSW visible
31 Jan 8.6 19:08:35 10° WSW 19:15:42 44° S 19:20:38 21° ESE visible
31 Jan 9.2 21:02:40 10° WSW 21:07:31 30° SW 21:07:31 30° SW visible
01 Feb 8.7 18:14:55 10° WSW 18:21:52 43° S 18:29:07 10° ESE visible
01 Feb 8.7 20:08:42 10° WSW 20:15:41 38° S 20:17:13 35° SSE visible
01 Feb 10.3 22:03:42 10° WSW 22:04:07 11° WSW 22:04:07 11° WSW visible
02 Feb 8.7 19:14:52 10° WSW 19:21:50 41° S 19:26:56 19° SE visible
02 Feb 9.5 21:09:22 10° WSW 21:13:51 24° SW 21:13:51 24° SW visible
03 Feb 8.8 18:21:08 10° WSW 18:28:01 43° S 18:35:14 10° ESE visible
03 Feb 9.1 20:15:16 10° WSW 20:21:44 30° SSW 20:23:37 27° S visible
